Location: Newark
(45.5000°N, 11.4167°E)
Time: 19:26:41
(UTC+00:00)

Explorer 7 - All Passes

Search period start: 18 August 2019 00:00
Search period end: 28 August 2019 00:00
Orbit: 485 x 680 km, 50.3° (Epoch: 16 August)

Date Brightness Start Highest point End Pass type
(mag) Time Alt. Az. Time Alt. Az. Time Alt. Az.
18 Aug - 09:09:58 10° S 09:13:20 19° SE 09:16:35 10° E daylight
18 Aug - 10:48:47 10° SW 10:53:28 76° SSE 10:57:53 10° ENE daylight
18 Aug - 12:29:52 10° W 12:34:16 48° N 12:38:25 10° ENE daylight
18 Aug - 14:11:06 10° WNW 14:15:21 49° N 14:19:20 10° E daylight
18 Aug - 15:51:53 10° WNW 15:56:02 63° SSW 15:59:55 10° SE daylight
18 Aug - 17:34:13 10° WSW 17:35:49 12° SW 17:37:23 10° SSW daylight
19 Aug - 09:14:06 10° SSW 09:18:11 29° SE 09:22:07 10° E daylight
19 Aug - 10:53:49 10° WSW 10:58:32 81° NNW 11:02:58 10° ENE daylight
19 Aug - 12:35:07 10° WNW 12:39:28 44° N 12:43:34 10° ENE daylight
19 Aug - 14:16:12 10° WNW 14:20:31 59° NNE 14:24:33 10° E daylight
19 Aug - 15:57:02 10° WNW 16:01:00 41° SW 16:04:43 10° SE daylight
20 Aug - 09:18:35 10° SSW 09:23:05 42° SE 09:27:24 10° ENE daylight
20 Aug - 10:58:59 10° W 11:03:38 64° NNW 11:08:02 10° ENE daylight
20 Aug - 12:40:21 10° WNW 12:44:41 44° N 12:48:45 10° ENE daylight
20 Aug - 14:21:17 10° WNW 14:25:39 75° NNE 14:29:42 10° ESE daylight
20 Aug - 16:02:21 10° W 16:05:53 27° SW 16:09:14 10° SSE daylight
21 Aug - 07:45:26 10° SSE 07:48:04 15° SE 07:50:41 10° E daylight
21 Aug - 09:23:20 10° SW 09:28:04 61° SSE 09:32:34 10° ENE daylight
21 Aug - 11:04:12 10° W 11:08:47 53° NNW 11:13:06 10° ENE daylight
21 Aug - 12:45:32 10° WNW 12:49:54 46° N 12:53:59 10° E daylight
21 Aug - 14:26:22 10° WNW 14:30:43 81° SSW 14:34:46 10° ESE daylight
21 Aug - 16:07:55 10° W 16:10:41 17° SW 16:13:21 10° S daylight
22 Aug - 07:49:07 10° S 07:52:52 23° SE 07:56:32 10° E daylight
22 Aug - 09:28:17 10° WSW 09:33:05 84° SSE 09:37:39 10° ENE daylight
22 Aug - 11:09:27 10° W 11:13:59 47° N 11:18:14 10° ENE daylight
22 Aug - 12:50:40 10° WNW 12:55:05 53° NNE 12:59:13 10° E daylight
22 Aug - 14:31:29 10° WNW 14:35:44 56° SSW 14:39:41 10° SE daylight
22 Aug - 16:14:31 10° WSW 16:15:25 11° SW 16:16:19 10° SW daylight
23 Aug - 07:53:24 10° SSW 07:57:44 33° SE 08:01:57 10° ENE daylight
23 Aug - 09:33:22 10° WSW 09:38:10 75° NNW 09:42:43 10° ENE daylight
23 Aug - 11:14:42 10° WNW 11:19:11 45° N 11:23:24 10° ENE daylight
23 Aug - 12:55:46 10° WNW 13:00:15 64° NNE 13:04:25 10° E daylight
23 Aug - 14:36:40 10° WNW 14:40:40 37° SW 14:44:25 10° SSE daylight
24 Aug - 06:21:36 10° SE 06:22:50 11° SE 06:24:04 10° ESE daylight
24 Aug - 07:57:59 10° SW 08:02:40 49° SE 08:07:11 10° ENE daylight
24 Aug - 09:38:33 10° W 09:43:18 60° NNW 09:47:48 10° ENE daylight
24 Aug - 11:19:55 10° WNW 11:24:24 45° N 11:28:37 10° ENE daylight
24 Aug - 13:00:50 10° WNW 13:05:21 83° NNE 13:09:33 10° ESE daylight
24 Aug - 14:42:02 10° W 14:45:31 24° SW 14:48:50 10° SSE daylight
25 Aug - 06:24:24 10° S 06:27:35 17° SE 06:30:44 10° E daylight
25 Aug - 08:02:49 10° SW 08:07:39 69° SSE 08:12:19 10° ENE daylight
25 Aug - 09:43:47 10° W 09:48:28 51° NNW 09:52:54 10° ENE daylight
25 Aug - 11:25:05 10° WNW 11:29:36 49° N 11:33:51 10° E daylight
25 Aug - 13:05:55 10° WNW 13:10:24 72° SSW 13:14:35 10° SE daylight
25 Aug - 14:47:43 10° W 14:50:18 16° SW 14:52:47 10° S daylight
26 Aug - 06:28:21 10° SSW 06:32:24 26° SE 06:36:22 10° E daylight
26 Aug - 08:07:48 10° WSW 08:12:42 88° NNW 08:17:23 10° ENE daylight
26 Aug - 09:49:02 10° W 09:53:39 47° N 09:58:03 10° ENE daylight
26 Aug - 11:30:13 10° WNW 11:34:48 57° NNE 11:39:04 10° E daylight
26 Aug - 13:11:03 10° WNW 13:15:23 50° SW 13:19:26 10° SE daylight
27 Aug - 06:32:45 10° SSW 06:37:17 38° SE 06:41:42 10° ENE daylight
27 Aug - 08:12:55 10° WSW 08:17:47 70° NNW 08:22:28 10° ENE daylight
27 Aug - 09:54:17 10° WNW 09:58:52 45° N 10:03:13 10° ENE daylight
27 Aug - 11:35:18 10° WNW 11:39:55 70° NNE 11:44:15 10° ESE daylight
27 Aug - 13:16:17 10° WNW 13:20:17 33° SW 13:24:04 10° SSE daylight
